Zurück zum Katalog

STARLINK-33862

AktivKommunikationVLEO
NORAD 63709·PAYLOAD·🇺🇸 United States

Gestartet Apr 28, 2025 von Vandenberg Space Force Base

Loading…

Nächste Überflüge (nächste 24 Stunden)

TLE

AktuellSource: CelesTrak SupGP

Epoche: Sep 14, 2026, 21:15 UTC

1 63709C 25087N   26257.88590278  .00060196  00000+0  17759-2 0  2575
2 63709  53.1604  59.8821 0000614  57.6284 129.0100 15.34407204    16

Verfolge STARLINK-33862 in Echtzeit mit AllMySat

Download on the App Store